Вернуться в каталог

SL-12 DEB

LostHEO
NORAD 43919·DEBRIS·🇷🇺 Russia

Запущен Dec 25, 2005 с Baikonur Cosmodrome

Loading…

Ближайшие Пролёты (ближайшие 24 часа)

TLE

УстаревшееSource: Space-Track

Эпоха: May 9, 2021, 23:52 UTC

1 43919U 05050H   21129.99503984  .00000454  00000-0  22988-2 0  9992
2 43919  65.4430 344.0847 5595484 265.4210  32.1499  4.36432526 38891

Отслеживайте SL-12 DEB в реальном времени с AllMySat

Download on the App Store